SCP
0 0 0 0 0 0 0 0 0 0 1 1 1 1 0 0 1 2 1 1 1 1 1 2 2 2 1 1 1 1 2 1 1 0 0 0 0 0 0 0 0 0 0
0 0 0 0 0 0 0 0 0 0 1 1 1 1 1 1 1 1 1 1 1 1 1 2 2 2 1 1 1 1 1 1 1 0 0 0 0 0 0 0 0 0 0
0 0 0 0 0 0 0 0 0 0 0 1 1 1 1 1 0 1 1 1 1 1 1 1 1 1 1 1 1 1 1 1 1 0 0 0 0 0 0 0 0 0 0
0 0 0 0 0 0 0 0 0 0 0 0 1 1 1 1 0 0 0 1 1 1 1 1 1 1 1 0 0 1 1 1 1 0 0 0 0 0 0 0 0 0 0
0 0 0 0 0 0 0 0 0 0 0 0 0 0 1 0 0 0 0 0 1 1 1 1 1 1 1 0 0 0 0 1 0 0 0 0 0 0 0 0 0 0 0
0 0 0 0 0 0 0 0 0 0 0 0 0 0 0 0 0 0 0 0 1 1 1 2 1 1 1 0 0 0 0 0 0 0 0 0 0 0 0 0 0 0 0
0 0 0 0 0 0 0 0 0 0 0 0 0 0 0 0 0 0 0 0 0 1 1 2 2 1 1 0 0 0 0 0 0 0 0 0 0 0 0 0 0 0 0
0 0 0 0 0 0 0 0 0 0 0 0 0 0 0 0 0 0 0 0 0 0 1 1 2 1 1 1 0 0 0 0 0 0 0 0 0 0 0 0 0 0 0
0 0 0 0 0 0 0 0 0 0 0 0 0 0 0 0 0 0 0 0 0 0 0 1 1 1 1 1 1 0 0 0 0 0 0 0 0 0 0 0 0 0 0
0 0 0 0 0 0 0 0 0 0 0 0 0 0 0 0 0 0 0 0 0 0 0 0 0 0 1 1 0 0 0 0 0 0 0 0 0 0 0 0 0 0 0
0 0 0 0 0 0 0 0 0 0 0 0 0 0 0 0 0 0 0 0 0 0 0 0 0 0 0 0 0 0 0 0 0 0 0 0 0 0 0 0 0 0 0
0 0 0 0 0 0 0 0 0 0 0 0 0 0 0 0 0 0 0 0 0 0 0 0 0 0 0 0 0 0 0 0 0 0 0 0 0 0 0 0 0 0 0
0 0 0 0 0 0 0 0 0 0 0 0 0 0 0 0 0 0 0 0 0 0 0 0 0 0 0 0 0 0 0 0 0 0 0 0 0 0 0 0 0 0 0
0 0 0 0 0 0 0 0 0 0 0 0 0 0 0 0 0 0 0 0 0 0 0 0 0 0 0 0 0 0 0 0 0 0 0 0 0 0 0 0 0 0 0
0 0 0 0 0 0 0 0 0 0 0 0 0 0 0 0 0 0 0 0 0 0 0 0 0 0 0 0 0 0 0 0 0 0 0 0 0 0 0 0 0 0 0
0 0 0 0 0 0 0 0 0 0 0 0 0 0 0 0 0 0 0 0 0 0 0 0 0 0 0 0 0 0 0 0 0 0 0 0 0 0 0 0 0 0 0
0 0 0 0 0 0 0 0 0 0 0 0 0 0 0 0 0 0 0 0 0 0 0 0 0 0 0 0 0 0 0 0 0 0 0 0 0 0 0 0 0 0 0
0 0 0 0 0 0 0 0 0 0 0 0 0 0 0 0 0 0 0 0 0 0 0 0 0 0 0 0 0 0 0 0 0 0 0 0 0 0 0 0 0 0 0
0 0 0 0 0 0 0 0 0 0 0 0 0 0 0 0 0 0 0 0 0 0 0 0 0 0 0 0 0 0 0 0 0 0 0 0 0 0 0 0 0 0 0
0 0 0 0 0 0 0 0 0 0 0 0 0 0 0 0 0 0 0 0 0 0 0 0 0 0 0 0 0 0 0 0 0 0 0 0 0 0 0 0 0 0 0
0 0 0 0 0 0 0 0 0 0 0 0 0 0 0 0 0 0 0 0 0 0 0 0 0 0 0 0 0 0 0 0 0 0 0 0 0 0 0 0 0 0 0
0 0 0 0 0 0 0 0 0 0 0 0 0 0 0 0 0 0 0 0 0 0 0 0 0 0 0 0 0 0 0 0 0 0 0 0 0 0 0 0 0 0 0
0 0 0 0 0 0 0 0 0 0 0 0 0 0 0 0 0 0 0 0 0 0 0 0 0 0 0 0 0 0 0 0 0 0 0 0 0 0 0 0 0 0 0
0 0 0 0 0 0 0 0 0 0 0 0 0 0 0 0 0 0 0 0 0 0 0 0 0 0 0 0 0 0 0 0 0 0 0 0 0 0 0 0 0 0 0
0 0 0 0 0 0 0 0 0 0 0 0 0 0 0 0 0 0 0 0 0 0 0 0 0 0 0 0 0 0 0 0 0 0 0 0 0 0 0 0 0 0 0
0 0 0 0 0 0 0 0 0 0 0 0 0 0 0 0 0 0 0 0 0 0 0 0 0 0 0 0 0 0 0 0 0 0 0 0 0 0 0 0 0 0 0
Wind_Speed
3 1 1 1 2 3 3 2 2 1 2 1 1 1 1 1 1 1 2 2 2 2 3 2 2 2 3 2 2 1 2 1 1 1 1 1 1 0 0 0 0 1 2
2 2 2 2 2 1 2 1 1 2 1 1 1 1 1 1 1 1 2 2 2 1 2 3 2 2 2 2 2 2 2 1 1 1 1 1 2 2 1 1 0 1 1
3 2 1 1 1 1 1 1 1 1 1 1 2 2 2 2 1 1 1 2 2 1 2 2 2 2 2 2 2 3 3 2 1 1 2 2 2 2 2 1 1 1 1
2 2 1 1 1 2 1 1 1 1 1 2 2 2 2 1 0 0 1 1 1 2 1 2 2 2 1 1 2 2 1 3 2 1 0 1 2 1 2 2 1 2 2
2 2 2 2 1 1 0 1 2 2 2 2 2 2 2 1 1 1 2 1 1 1 1 1 2 1 1 1 1 1 2 2 2 2 1 1 0 1 1 2 2 2 2
1 1 1 1 1 1 1 1 2 2 2 2 2 2 2 1 2 2 1 1 0 0 1 1 1 1 1 1 2 2 2 2 2 1 2 2 2 2 2 2 2 3 3
1 1 1 0 0 1 1 1 2 2 2 2 2 1 0 1 1 1 1 0 0 0 1 0 1 1 1 1 1 2 2 2 2 2 2 2 2 1 2 2 2 2 2
1 1 1 1 0 0 1 1 1 1 2 2 1 1 1 1 1 0 1 1 0 1 1 1 1 1 1 1 1 1 1 1 2 2 2 2 2 1 2 2 2 2 2
2 1 1 1 0 0 0 1 1 1 1 1 1 2 2 1 1 1 0 0 0 1 1 0 0 1 1 1 1 1 1 1 1 1 1 2 2 2 2 2 2 2 3
2 2 1 1 1 1 0 1 1 1 1 1 1 1 1 1 1 1 1 1 1 0 1 1 1 1 1 1 1 1 1 1 1 1 1 2 2 1 1 2 2 2 3
2 2 2 1 1 1 1 1 1 1 1 1 1 1 1 1 1 1 1 1 1 0 0 1 1 1 2 1 1 2 2 2 2 2 2 3 2 2 2 2 2 2 2
1 2 1 1 1 1 0 0 0 0 0 0 1 1 1 1 1 1 1 1 1 1 1 1 1 2 2 2 2 3 3 3 3 3 3 3 2 3 2 2 3 3 3
2 1 1 1 1 1 1 1 1 1 0 0 0 1 1 1 2 2 2 2 2 1 1 1 2 3 3 3 3 3 3 4 4 4 4 4 3 4 3 3 3 3 3
2 1 2 2 2 1 1 1 1 1 0 0 0 1 1 1 2 2 2 2 2 2 2 2 3 3 3 3 4 4 4 4 4 4 4 4 4 5 4 4 4 3 3
3 3 3 2 2 2 2 1 1 1 0 0 1 1 2 2 2 2 3 2 2 2 2 2 3 3 3 3 4 4 4 4 3 3 4 4 6 6 5 4 3 3 3
5 4 4 3 3 3 3 2 2 1 1 1 2 2 2 2 2 2 3 3 3 2 2 2 3 3 4 6 7 5 3 3 4 4 4 4 5 6 7 8 8 6 5
5 5 5 5 4 4 3 3 3 2 1 2 2 2 2 2 3 3 3 3 3 3 3 3 3 4 5 8 8 7 4 4 4 4 4 4 4 5 4 6 8 7 9
5 5 4 4 3 3 2 2 2 2 2 2 2 2 2 3 3 3 3 3 3 3 3 3 3 4 6 8 8 7 4 4 4 5 5 5 4 4 5 4 4 4 5
5 5 4 4 3 3 2 2 2 2 2 3 3 3 3 3 3 3 3 3 3 4 4 3 4 4 6 8 9 7 3 3 4 4 4 4 4 7 7 4 4 5 5
3 3 3 3 3 3 2 2 2 2 3 4 4 3 3 3 4 4 4 3 3 4 4 4 4 4 5 8 9 7 3 3 3 3 4 6 6 8 7 4 4 5 5
3 3 3 3 3 3 2 3 3 4 4 3 3 3 3 4 4 4 3 3 4 4 4 4 4 5 6 7 8 7 3 3 3 3 3 4 8 8 8 6 4 6 5
3 2 2 3 3 3 3 3 5 4 3 2 3 3 3 3 3 3 3 3 3 4 4 4 4 4 4 6 7 8 7 5 4 4 3 4 8 8 8 6 6 6 4
3 3 3 3 3 3 3 4 5 3 2 2 3 3 3 3 3 3 3 3 3 3 4 3 4 4 3 4 8 8 8 7 4 4 6 7 7 6 5 6 6 3 1
3 2 2 3 4 3 3 4 4 3 3 3 3 3 3 3 3 3 3 3 3 3 3 4 4 4 4 3 4 3 4 5 4 3 5 6 6 4 5 4 2 1 2
3 2 3 4 5 4 3 3 3 3 3 3 4 3 3 3 3 3 3 4 4 4 4 4 4 4 5 6 8 5 3 3 3 3 2 1 1 2 2 2 2 2 2
3 3 4 4 4 4 4 3 3 3 3 3 3 3 3 3 3 3 4 6 6 8 9 8 7 6 8 10 9 9 8 7 6 3 2 2 2 2 2 2 2 2 2
Wind_Direction
293 332 1 8 18 25 35 39 46 44 75 80 92 92 85 67 77 109 93 94 110 125 123 118 130 144 149 154 140 129 106 64 48 75 22 343 328 308 310 309 322 337 330
320 346 359 14 12 11 21 34 41 48 41 58 108 114 125 114 73 66 90 92 92 121 131 127 134 139 148 143 140 129 127 106 84 100 85 336 324 319 316 325 299 315 325
245 286 331 342 356 346 339 8 14 54 50 54 74 81 79 66 46 21 58 74 102 110 121 133 140 137 143 158 169 168 158 165 194 123 137 154 238 299 306 300 321 334 310
250 252 257 298 282 270 294 27 33 48 54 68 80 92 109 119 171 85 47 51 82 92 95 121 138 147 149 150 177 170 170 162 179 204 62 140 153 172 291 303 313 309 289
244 243 238 232 235 242 66 54 52 47 45 62 80 90 86 108 83 62 65 41 49 69 80 125 127 140 156 165 174 172 164 168 174 171 159 138 77 146 188 272 304 314 288
279 249 249 198 146 93 75 65 68 50 44 54 60 77 95 91 94 78 71 28 355 69 50 87 130 145 159 188 197 190 177 181 173 172 172 169 173 198 192 234 281 287 285
297 322 329 16 54 76 85 79 80 55 41 52 53 48 60 119 125 139 157 127 346 307 247 196 188 181 186 187 193 190 192 190 182 190 203 206 206 191 191 214 258 276 284
331 338 322 261 222 92 95 103 98 68 52 51 26 23 25 65 50 59 157 181 238 276 253 217 210 218 205 178 172 192 209 206 202 210 215 223 229 212 206 205 222 274 274
317 309 334 330 294 264 172 174 158 84 60 45 23 19 20 39 40 16 10 262 306 305 323 260 245 253 231 207 183 202 211 210 224 223 228 239 237 227 230 222 218 225 264
330 333 330 332 340 313 348 34 74 73 40 42 29 23 8 8 13 41 3 344 318 317 331 329 281 264 242 219 198 217 225 208 232 232 223 243 258 253 247 233 236 235 243
306 306 315 330 352 14 50 60 45 48 39 27 19 17 357 7 20 11 331 306 284 279 261 273 261 253 247 226 216 235 220 219 233 238 234 246 250 246 254 251 239 240 235
295 297 305 328 353 346 341 124 127 39 335 355 11 2 356 3 356 333 325 323 287 272 264 266 264 260 256 239 224 235 231 230 232 232 233 247 250 247 248 245 243 240 237
316 310 299 290 287 288 286 271 245 239 287 309 345 356 355 351 334 320 315 312 295 283 280 263 259 261 258 250 243 235 232 234 237 233 230 238 236 247 248 245 243 242 252
253 250 252 261 272 272 270 273 280 275 252 171 314 315 311 304 307 314 308 295 292 281 273 260 258 259 258 249 244 237 231 235 238 237 234 234 231 240 242 245 240 240 247
258 247 244 248 257 266 269 260 262 264 252 233 293 288 295 298 306 313 306 300 301 291 281 276 275 270 261 248 242 233 232 232 237 240 240 242 249 254 253 251 241 240 247
251 251 246 243 246 249 255 258 259 257 241 243 263 277 290 295 295 298 302 301 299 291 284 278 272 271 272 272 267 259 230 230 236 246 249 252 251 259 269 270 264 254 247
243 237 236 236 240 239 236 237 240 240 235 248 264 273 275 281 286 293 301 295 292 285 277 276 271 270 275 280 272 267 246 231 240 244 248 260 261 267 261 269 273 268 268
237 234 232 237 238 231 229 231 224 221 235 248 257 260 262 269 278 282 286 289 290 284 275 275 271 272 281 288 284 280 257 240 241 241 238 244 251 257 260 255 259 257 261
230 226 224 226 223 221 216 209 225 227 236 246 251 252 251 261 266 270 276 282 285 283 274 271 269 271 283 292 290 286 254 247 250 250 246 247 247 264 272 263 259 267 268
222 219 219 218 220 225 198 204 234 242 249 252 254 252 251 255 257 261 268 272 274 279 279 279 272 268 273 285 289 286 253 249 254 256 255 259 264 267 273 260 251 263 269
230 221 214 219 225 213 195 221 241 251 256 258 261 259 255 257 256 262 267 271 278 284 278 276 277 272 275 284 287 285 265 245 251 257 258 261 271 273 277 277 258 268 280
235 221 220 239 236 208 199 228 246 251 252 251 258 261 261 265 265 258 270 272 273 281 279 277 283 277 279 286 285 286 280 278 255 255 255 262 273 278 282 284 282 289 302
239 229 219 242 252 228 208 229 248 246 242 247 256 261 269 268 264 258 265 273 268 268 274 272 277 283 281 283 291 291 291 288 277 262 271 279 282 286 282 286 289 296 290
242 228 218 238 252 243 230 229 240 236 227 241 253 256 256 263 261 261 257 256 260 263 267 272 275 281 280 274 271 268 274 279 279 277 277 281 284 290 289 288 294 289 259
246 223 223 235 247 250 249 242 232 216 227 242 250 257 255 256 262 260 252 254 247 250 260 261 261 271 276 279 288 290 274 265 263 274 267 264 271 275 277 278 277 275 283
240 236 238 241 248 247 252 251 234 216 220 242 249 249 253 255 257 266 275 267 266 277 279 280 278 274 279 293 295 296 296 295 290 284 265 262 261 268 276 280 283 275 271